Location: Luz Observatory
(34.5000°N, 117.2833°W)
Time: 18:55:47
(UTC-08:00)

Daily predictions for brighter satellites

Satellite Brightness Start Highest point End
(mag) Time Altitude Azimuth Time Altitude Azimuth Time Altitude Azimuth
COSMO-SKYMED 1 2.8 17:31:07 10° NNE 17:35:20 49° E 17:39:31 10° S
Cosmos 2237 Rocket 3.1 17:30:53 10° SW 17:36:19 50° WNW 17:41:47 10° N
Cosmos 1666 Rocket 4.3 17:35:51 10° SSE 17:39:39 30° E 17:43:28 10° NNE
BREEZE-M DEB (TANK) 4.1 17:38:40 10° WNW 17:42:49 56° SW 17:50:12 10° SSE
Thor Agena Rocket 4.1 17:39:06 10° N 17:44:15 63° WNW 17:49:18 10° SSW
Cosmos 1538 Rocket 4.2 17:39:10 10° S 17:44:19 57° ESE 17:49:33 10° NNE
SPOT 3 Rocket 3.9 17:39:24 10° S 17:44:31 73° WSW 17:49:42 10° NNW
SL-16 R/B 2.2 17:39:08 10° SSW 17:44:46 78° ESE 17:50:25 10° NNE
SL-14 R/B 4.1 17:40:59 10° SSW 17:44:49 54° W 17:48:44 10° N
Cosmos 1484 Rocket 2.8 17:42:45 10° SSE 17:46:38 66° ENE 17:50:36 10° N
Meteor 1-27 4.3 17:42:19 10° N 17:48:09 75° E 17:53:59 10° SSE
Cosmos 1340 Rocket 2.8 17:45:06 10° S 17:49:02 85° W 17:52:57 10° N
Meteor 2-10 4.0 17:44:25 10° N 17:49:35 76° E 17:54:54 10° SSE
Resurs 01 Rocket 3.4 17:49:46 10° E 17:51:01 11° ENE 17:52:26 10° NE
Cosmos 304 Rocket 4.1 17:48:16 10° SSW 17:53:03 72° WNW 17:57:52 10° NNE
Meteor 1-28 Rocket 3.2 17:53:31 10° NNE 17:57:12 60° E 18:00:53 10° S
Tiangong 1 1.8 17:55:35 10° SW 17:58:22 36° SE 18:00:16 17° E
Lacrosse 4 Rocket 2.8 17:57:54 10° NNE 18:00:36 17° NE 18:01:46 15° ENE
Cosmos 2297 3.7 17:55:52 10° NNW 18:01:34 64° ENE 18:07:14 10° SSE
Cosmos 1151 Rocket 4.5 17:58:16 10° NNW 18:02:18 41° W 18:06:20 10° SSW
Cosmos 1869 4.3 18:04:04 10° NNE 18:07:23 24° ENE 18:10:42 10° SE
METEOR-M 4.3 18:05:56 10° SE 18:11:01 47° ENE 18:16:08 10° N
Cosmos 1470 Rocket 4.4 18:09:01 10° SSE 18:12:43 28° E 18:15:28 15° NE
Cosmos 2279 Rocket 4.3 18:09:02 10° NNW 18:15:13 70° W 18:21:24 10° S
Cosmos 1805 Rocket 4.2 18:13:20 10° SSW 18:17:43 59° W 18:22:07 10° N
NOSS 3-1 (C) 4.3 18:13:26 10° SSE 18:18:04 26° ESE 18:20:20 21° ENE
Cosmos 773 Rocket 3.9 18:13:32 10° SSW 18:18:40 80° ESE 18:23:53 10° NNE
NOAA 12 4.0 18:14:08 10° SSE 18:19:17 61° ENE 18:24:28 10° N
Cosmos 1626 2.6 18:18:15 10° SSW 18:21:56 61° W 18:25:39 10° N
Cosmos 1943 4.2 18:18:27 10° SSE 18:22:50 24° E 18:23:49 22° E
Cosmos 2242 Rocket 3.8 18:20:18 10° N 18:24:33 44° E 18:28:48 10° SSE
Cosmos 1900 4.4 18:23:55 10° NNW 18:28:54 81° WSW 18:33:55 10° SSE
Sich 1 3.4 18:26:02 10° SSW 18:30:27 67° W 18:34:53 10° N
Nadezhda 4 Rocket 4.0 18:24:18 10° S 18:30:33 85° W 18:36:54 10° N
USA 215 3.8 18:28:14 23° E 18:31:39 37° NE 18:37:34 10° NNW
Cosmos 1356 Rocket 4.4 18:28:27 10° SSW 18:32:17 46° W 18:36:09 10° N
Coronas F rocket 1.6 18:31:04 10° SSW 18:33:25 54° W 18:34:09 34° NNW
Cosmos 2026 Rocket 4.4 18:28:44 10° SSE 18:34:25 39° E 18:40:02 10° NNE
Lacrosse 5 rocket 3.3 18:31:16 10° WNW 18:34:40 29° WSW 18:38:13 10° S
Cosmos 2112 Rocket 4.2 18:30:09 10° S 18:35:04 46° ESE 18:37:38 26° NE
ALOS 2.5 18:34:44 10° SE 18:39:08 43° ENE 18:43:33 10° N
Centaur AC-72 4.5 18:33:55 10° SW 18:39:11 30° SSE 18:47:32 13° ESE
Aureole 1 Rocket 4.0 18:35:30 10° SSW 18:40:40 72° WNW 18:47:34 10° NNE
Cosmos 1633 Rocket 3.7 18:36:40 10° SSW 18:41:00 57° W 18:45:20 10° N
BREEZE M DEB (TANK) 3.0 18:41:26 10° NW 18:42:28 24° NNW 18:42:28 24° NNW
Delta 2 Rocket 3.7 18:43:55 10° SW 18:46:48 35° SSE 18:46:48 35° SSE
Cosmos 1455 3.0 18:44:28 10° NNW 18:48:10 52° W 18:51:53 10° S
Cosmos 1603 3.7 18:43:59 10° SSW 18:49:35 83° WNW 18:54:02 17° NNE
Cosmos 292 Rocket 3.7 18:44:55 10° SSW 18:49:41 85° WNW 18:52:44 22° NNE
FengYun 1-2 T 4.1 18:47:00 10° SSE 18:52:29 64° ENE 18:57:56 10° N
Cosmos 1092 Rocket 4.1 18:46:44 10° S 18:53:03 79° W 18:59:26 10° N
Chunghua 1 4.4 18:49:20 10° WSW 18:53:18 84° SSE 18:53:31 78° ESE
SJ-6B 3.5 18:54:05 10° S 18:58:04 57° W 19:02:09 10° NNW
Spot 2 Rocket 3.3 19:02:26 10° SSE 19:07:28 78° ENE 19:12:31 10° N
Iridium 4 Rocket 4.1 19:06:45 10° SSW 19:11:06 46° W 19:15:13 10° NNW
Cosmos 2195 Rocket 4.5 19:10:05 10° S 19:16:10 79° W 19:22:20 10° N
Centaur AC-119 3.9 19:16:36 10° SW 19:18:32 30° S 19:18:32 30° S
Resurs 01 Rocket 2.2 19:22:36 10° S 19:27:18 55° W 19:31:21 10° NNW
Cosmos 2369 Rocket 3.8 19:22:44 10° N 19:24:42 21° N 19:24:42 21° N
NOSS 3-1 (A) 3.3 19:24:56 10° SSW 19:29:52 67° S 19:29:52 67° S
Meteor 2-20 Rocket 4.3 19:24:41 10° S 19:30:40 84° ESE 19:30:40 84° ESE
Lacrosse 4 Rocket 3.3 19:35:44 10° NW 19:38:14 27° WNW 19:38:14 27° WNW
Cosmos 1943 4.5 20:01:17 10° SW 20:05:43 37° W 20:05:43 37° W
NOSS 3-1 (C) 4.5 20:03:08 10° WSW 20:07:48 39° WNW 20:07:48 39° WNW
USA 215 3.9 20:15:36 51° W 20:15:36 51° W 20:20:51 10° NW
